Year,Month,Day,Hour,Minute,Value (Times are PST for temperature in C)
2018,11,27,00,00,10.30
2018,11,27,00,01,10.30
2018,11,27,00,02,10.30
2018,11,27,00,03,10.30
2018,11,27,00,04,10.30
2018,11,27,00,05,10.30
2018,11,27,00,06,10.30
2018,11,27,00,07,10.30
2018,11,27,00,08,10.30
2018,11,27,00,09,10.30
2018,11,27,00,10,10.30
2018,11,27,00,11,10.30
2018,11,27,00,12,10.30
2018,11,27,00,13,10.30
2018,11,27,00,14,10.30
2018,11,27,00,15,10.30
2018,11,27,00,16,10.20
2018,11,27,00,17,10.20
2018,11,27,00,18,10.20
2018,11,27,00,19,10.20
2018,11,27,00,20,10.20
2018,11,27,00,21,10.20
2018,11,27,00,22,10.20
2018,11,27,00,23,10.20
2018,11,27,00,24,10.20
2018,11,27,00,25,10.20
2018,11,27,00,26,10.20
2018,11,27,00,27,10.20
2018,11,27,00,28,10.20
2018,11,27,00,29,10.20
2018,11,27,00,30,10.20
2018,11,27,00,31,10.20
2018,11,27,00,32,10.20
2018,11,27,00,33,10.20
2018,11,27,00,34,10.20
2018,11,27,00,35,10.20
2018,11,27,00,36,10.20
2018,11,27,00,37,10.20
2018,11,27,00,38,10.20
2018,11,27,00,39,10.20
2018,11,27,00,40,10.20
2018,11,27,00,41,10.20
2018,11,27,00,42,10.20
2018,11,27,00,43,10.20
2018,11,27,00,44,10.20
2018,11,27,00,45,10.20
2018,11,27,00,46,10.20
2018,11,27,00,47,10.20
2018,11,27,00,48,10.20
2018,11,27,00,49,10.20
2018,11,27,00,50,10.20
2018,11,27,00,51,10.20
2018,11,27,00,52,10.20
2018,11,27,00,53,10.20
2018,11,27,00,54,10.20
2018,11,27,00,55,10.20
2018,11,27,00,56,10.20
2018,11,27,00,57,10.20
2018,11,27,00,58,10.20
2018,11,27,00,59,10.20
2018,11,27,01,00,10.20
2018,11,27,01,01,10.20
2018,11,27,01,02,10.20
2018,11,27,01,03,10.20
2018,11,27,01,04,10.20
2018,11,27,01,05,10.20
2018,11,27,01,06,10.20
2018,11,27,01,07,10.20
2018,11,27,01,08,10.20
2018,11,27,01,09,10.20
2018,11,27,01,10,10.20
2018,11,27,01,11,10.20
2018,11,27,01,12,10.20
2018,11,27,01,13,10.20
2018,11,27,01,14,10.20
2018,11,27,01,15,10.20
2018,11,27,01,16,10.20
2018,11,27,01,17,10.20
2018,11,27,01,18,10.20
2018,11,27,01,19,10.20
2018,11,27,01,20,10.20
2018,11,27,01,21,10.20
2018,11,27,01,22,10.20
2018,11,27,01,23,10.20
2018,11,27,01,24,10.20
2018,11,27,01,25,10.20
2018,11,27,01,26,10.30
2018,11,27,01,27,10.30
2018,11,27,01,28,10.30
2018,11,27,01,29,10.30
2018,11,27,01,30,10.30
2018,11,27,01,31,10.30
2018,11,27,01,32,10.30
2018,11,27,01,33,10.30
2018,11,27,01,34,10.30
2018,11,27,01,35,10.30
2018,11,27,01,36,10.30
2018,11,27,01,37,10.30
2018,11,27,01,38,10.30
2018,11,27,01,39,10.30
2018,11,27,01,40,10.30
2018,11,27,01,41,10.30
2018,11,27,01,42,10.30
2018,11,27,01,43,10.30
2018,11,27,01,44,10.30
2018,11,27,01,45,10.30
2018,11,27,01,46,10.30
2018,11,27,01,47,10.30
2018,11,27,01,48,10.30
2018,11,27,01,49,10.30
2018,11,27,01,50,10.30
2018,11,27,01,51,10.30
2018,11,27,01,52,10.30
2018,11,27,01,53,10.30
2018,11,27,01,54,10.40
2018,11,27,01,55,10.40
2018,11,27,01,56,10.40
2018,11,27,01,57,10.40
2018,11,27,01,58,10.40
2018,11,27,01,59,10.40
2018,11,27,02,00,10.40
2018,11,27,02,01,10.40
2018,11,27,02,02,10.40
2018,11,27,02,03,10.40
2018,11,27,02,04,10.40
2018,11,27,02,05,10.40
2018,11,27,02,06,10.40
2018,11,27,02,07,10.40
2018,11,27,02,08,10.40
2018,11,27,02,09,10.40
2018,11,27,02,10,10.40
2018,11,27,02,11,10.40
2018,11,27,02,12,10.40
2018,11,27,02,13,10.40
2018,11,27,02,14,10.40
2018,11,27,02,15,10.40
2018,11,27,02,16,10.40
2018,11,27,02,17,10.40
2018,11,27,02,18,10.40
2018,11,27,02,19,10.40
2018,11,27,02,20,10.40
2018,11,27,02,21,10.40
2018,11,27,02,22,10.40
2018,11,27,02,23,10.40
2018,11,27,02,24,10.40
2018,11,27,02,25,10.40
2018,11,27,02,26,10.40
2018,11,27,02,27,10.40
2018,11,27,02,28,10.40
2018,11,27,02,29,10.40
2018,11,27,02,30,10.40
2018,11,27,02,31,10.40
2018,11,27,02,32,10.30
2018,11,27,02,33,10.30
2018,11,27,02,34,10.30
2018,11,27,02,35,10.30
2018,11,27,02,36,10.30
2018,11,27,02,37,10.30
2018,11,27,02,38,10.30
2018,11,27,02,39,10.30
2018,11,27,02,40,10.30
2018,11,27,02,41,10.30
2018,11,27,02,42,10.30
2018,11,27,02,43,10.30
2018,11,27,02,44,10.30
2018,11,27,02,45,10.30
2018,11,27,02,46,10.30
2018,11,27,02,47,10.30
2018,11,27,02,48,10.30
2018,11,27,02,49,10.30
2018,11,27,02,50,10.30
2018,11,27,02,51,10.30
2018,11,27,02,52,10.30
2018,11,27,02,53,10.30
2018,11,27,02,54,10.30
2018,11,27,02,55,10.30
2018,11,27,02,56,10.30
2018,11,27,02,57,10.30
2018,11,27,02,58,10.30
2018,11,27,02,59,10.30
2018,11,27,03,00,10.30
2018,11,27,03,01,10.30
2018,11,27,03,02,10.30
2018,11,27,03,03,10.30
2018,11,27,03,04,10.30
2018,11,27,03,05,10.30
2018,11,27,03,06,10.30
2018,11,27,03,07,10.30
2018,11,27,03,08,10.40
2018,11,27,03,09,10.40
2018,11,27,03,10,10.40
2018,11,27,03,11,10.40
2018,11,27,03,12,10.40
2018,11,27,03,13,10.40
2018,11,27,03,14,10.40
2018,11,27,03,15,10.40
2018,11,27,03,16,10.40
2018,11,27,03,17,10.30
2018,11,27,03,18,10.30
2018,11,27,03,19,10.30
2018,11,27,03,20,10.30
2018,11,27,03,21,10.40
2018,11,27,03,22,10.40
2018,11,27,03,23,10.40
2018,11,27,03,24,10.40
2018,11,27,03,25,10.40
2018,11,27,03,26,10.40
2018,11,27,03,27,10.40
2018,11,27,03,28,10.40
2018,11,27,03,29,10.40
2018,11,27,03,30,10.40
2018,11,27,03,31,10.40
2018,11,27,03,32,10.40
2018,11,27,03,33,10.40
2018,11,27,03,34,10.40
2018,11,27,03,35,10.40
2018,11,27,03,36,10.40
2018,11,27,03,37,10.50
2018,11,27,03,38,10.50
2018,11,27,03,39,10.50
2018,11,27,03,40,10.50
2018,11,27,03,41,10.50
2018,11,27,03,42,10.50
2018,11,27,03,43,10.50
2018,11,27,03,44,10.50
2018,11,27,03,45,10.60
2018,11,27,03,46,10.60
2018,11,27,03,47,10.60
2018,11,27,03,48,10.60
2018,11,27,03,49,10.60
2018,11,27,03,50,10.60
2018,11,27,03,51,10.60
2018,11,27,03,52,10.60
2018,11,27,03,53,10.60
2018,11,27,03,54,10.60
2018,11,27,03,55,10.70
2018,11,27,03,56,10.70
2018,11,27,03,57,10.70
2018,11,27,03,58,10.70
2018,11,27,03,59,10.80
2018,11,27,04,00,10.80
2018,11,27,04,01,10.80
2018,11,27,04,02,10.80
2018,11,27,04,03,10.80
2018,11,27,04,04,10.80
2018,11,27,04,05,10.80
2018,11,27,04,06,10.80
2018,11,27,04,07,10.80
2018,11,27,04,08,10.80
2018,11,27,04,09,10.70
2018,11,27,04,10,10.70
2018,11,27,04,11,10.70
2018,11,27,04,12,10.70
2018,11,27,04,13,10.70
2018,11,27,04,14,10.70
2018,11,27,04,15,10.70
2018,11,27,04,16,10.60
2018,11,27,04,17,10.60
2018,11,27,04,18,10.60
2018,11,27,04,19,10.60
2018,11,27,04,20,10.60
2018,11,27,04,21,10.60
2018,11,27,04,22,10.60
2018,11,27,04,23,10.60
2018,11,27,04,24,10.50
2018,11,27,04,25,10.50
2018,11,27,04,26,10.50
2018,11,27,04,27,10.50
2018,11,27,04,28,10.50
2018,11,27,04,29,10.50
2018,11,27,04,30,10.40
2018,11,27,04,31,10.40
2018,11,27,04,32,10.40
2018,11,27,04,33,10.40
2018,11,27,04,34,10.40
2018,11,27,04,35,10.40
2018,11,27,04,36,10.40
2018,11,27,04,37,10.40
2018,11,27,04,38,10.40
2018,11,27,04,39,10.40
2018,11,27,04,40,10.40
2018,11,27,08,20,12.60
2018,11,27,08,21,12.60
2018,11,27,08,22,12.60
2018,11,27,08,23,12.60
2018,11,27,08,24,12.60
2018,11,27,08,25,12.60
2018,11,27,08,26,12.60
2018,11,27,08,27,12.60
2018,11,27,08,28,12.60
2018,11,27,08,29,12.60
2018,11,27,08,30,12.60
2018,11,27,08,31,12.60
2018,11,27,08,32,12.60
2018,11,27,08,33,12.60
2018,11,27,08,34,12.60
2018,11,27,08,35,12.50
2018,11,27,08,36,12.50
2018,11,27,08,37,12.50
2018,11,27,08,38,12.50
2018,11,27,08,39,12.50
2018,11,27,08,40,12.50
2018,11,27,08,41,12.50
2018,11,27,08,42,12.50
2018,11,27,08,43,12.50
2018,11,27,08,44,12.50
2018,11,27,08,45,12.50
2018,11,27,08,46,12.50
2018,11,27,08,47,12.50
2018,11,27,08,48,12.50
2018,11,27,08,49,12.60
2018,11,27,08,50,12.60
2018,11,27,08,51,12.60
2018,11,27,08,52,12.60
2018,11,27,08,53,12.60
2018,11,27,08,54,12.60
2018,11,27,08,55,12.60
2018,11,27,08,56,12.60
2018,11,27,08,57,12.70
2018,11,27,08,58,12.70
2018,11,27,08,59,12.70
2018,11,27,09,00,12.70
2018,11,27,09,01,12.80
2018,11,27,09,02,12.80
2018,11,27,09,03,12.80
2018,11,27,09,04,12.80
2018,11,27,09,05,12.90
2018,11,27,09,06,12.90
2018,11,27,09,07,12.90
2018,11,27,09,08,13.00
2018,11,27,09,09,13.00
2018,11,27,09,10,13.10
2018,11,27,09,11,13.10
2018,11,27,09,12,13.10
2018,11,27,09,13,13.20
2018,11,27,09,14,13.20
2018,11,27,09,15,13.20
2018,11,27,09,16,13.20
2018,11,27,09,17,13.30
2018,11,27,09,18,13.30
2018,11,27,09,19,13.30
2018,11,27,09,20,13.40
2018,11,27,09,21,13.40
2018,11,27,09,22,13.40
2018,11,27,09,23,13.40
2018,11,27,09,24,13.50
2018,11,27,09,25,13.50
2018,11,27,09,26,13.50
2018,11,27,09,27,13.50
2018,11,27,09,28,13.60
2018,11,27,09,29,13.60
2018,11,27,09,30,13.60
2018,11,27,09,31,13.60
2018,11,27,09,32,13.60
2018,11,27,09,33,13.70
2018,11,27,09,34,13.70
2018,11,27,09,35,13.70
2018,11,27,09,36,13.60
2018,11,27,09,37,13.70
2018,11,27,09,38,13.70
2018,11,27,09,39,13.60
2018,11,27,09,40,13.60
2018,11,27,09,41,13.60
2018,11,27,09,42,13.70
2018,11,27,09,43,13.70
2018,11,27,09,44,13.70
2018,11,27,09,45,13.70
2018,11,27,09,46,13.70
2018,11,27,09,47,13.70
2018,11,27,09,48,13.70
2018,11,27,09,49,13.70
2018,11,27,09,50,13.70
2018,11,27,09,51,13.70
2018,11,27,09,52,13.70
2018,11,27,09,53,13.70
2018,11,27,09,54,13.70
2018,11,27,09,55,13.70
2018,11,27,09,56,13.70
2018,11,27,09,57,13.70
2018,11,27,09,58,13.80
2018,11,27,09,59,13.80
2018,11,27,10,00,13.80
2018,11,27,10,01,13.80
2018,11,27,10,02,13.70
2018,11,27,10,03,13.80
2018,11,27,10,04,13.80
2018,11,27,10,05,13.70
2018,11,27,10,06,13.70
2018,11,27,10,07,13.70
2018,11,27,10,08,13.70
2018,11,27,10,09,13.70
2018,11,27,10,10,13.70
2018,11,27,10,11,13.70
2018,11,27,10,12,13.70
2018,11,27,10,13,13.70
2018,11,27,10,14,13.70
2018,11,27,10,15,13.70
2018,11,27,10,16,13.70
2018,11,27,10,17,13.70
2018,11,27,10,18,13.80
2018,11,27,10,19,13.80
2018,11,27,10,20,13.80
2018,11,27,10,21,13.80
2018,11,27,10,22,13.80
2018,11,27,10,23,13.80
2018,11,27,10,24,13.80
2018,11,27,10,25,13.80
2018,11,27,10,26,13.80
2018,11,27,10,27,13.80
2018,11,27,10,28,13.80
2018,11,27,10,29,13.80
2018,11,27,10,30,13.80
2018,11,27,10,31,13.80
2018,11,27,10,32,13.90
2018,11,27,10,33,13.90
2018,11,27,10,34,13.90
2018,11,27,10,35,13.90
2018,11,27,10,36,13.90
2018,11,27,10,37,13.90
2018,11,27,10,38,13.90
2018,11,27,10,39,13.90
2018,11,27,10,40,13.90
2018,11,27,10,41,13.90
2018,11,27,10,42,13.90
2018,11,27,10,43,13.90
2018,11,27,10,44,13.90
2018,11,27,10,45,13.90
2018,11,27,10,46,13.90
2018,11,27,10,47,13.90
2018,11,27,10,48,13.90
2018,11,27,10,49,13.90
2018,11,27,10,50,13.80
2018,11,27,10,51,13.80
2018,11,27,10,52,13.80
2018,11,27,10,53,13.80
2018,11,27,10,54,13.80
2018,11,27,10,55,13.80
2018,11,27,10,56,13.80
2018,11,27,10,57,13.80
2018,11,27,10,58,13.80
2018,11,27,10,59,13.80
2018,11,27,11,00,13.70
2018,11,27,11,01,13.70
2018,11,27,11,02,13.70
2018,11,27,11,03,13.80
2018,11,27,11,04,13.80
2018,11,27,11,05,13.80
2018,11,27,11,06,13.80
2018,11,27,11,07,13.80
2018,11,27,11,08,13.80
2018,11,27,11,09,13.80
2018,11,27,11,10,13.80
2018,11,27,11,11,13.80
2018,11,27,11,12,13.90
2018,11,27,11,13,13.90
2018,11,27,11,14,13.90
2018,11,27,11,15,13.90
2018,11,27,11,16,13.90
2018,11,27,11,17,14.00
2018,11,27,11,18,14.00
2018,11,27,11,19,14.00
2018,11,27,11,20,14.00
2018,11,27,11,21,14.00
2018,11,27,11,22,14.00
2018,11,27,11,23,14.10
2018,11,27,11,24,14.10
2018,11,27,11,25,14.00
2018,11,27,11,26,14.00
2018,11,27,11,27,14.00
2018,11,27,11,28,14.10
2018,11,27,11,29,14.10
2018,11,27,11,30,14.10
2018,11,27,11,31,14.00
2018,11,27,11,32,14.00
2018,11,27,11,33,14.00
2018,11,27,11,34,14.00
2018,11,27,11,35,14.00
2018,11,27,11,36,14.00
2018,11,27,11,37,14.00
2018,11,27,11,38,14.00
2018,11,27,11,39,14.00
2018,11,27,11,40,14.00
2018,11,27,11,41,14.00
2018,11,27,11,42,14.00
2018,11,27,11,43,14.00
2018,11,27,11,44,14.00
2018,11,27,11,45,14.00
2018,11,27,11,46,14.00
2018,11,27,11,47,14.10
2018,11,27,11,48,14.10
2018,11,27,11,49,14.10
2018,11,27,11,50,14.10
2018,11,27,11,51,14.10
2018,11,27,11,52,14.10
2018,11,27,11,53,14.10
2018,11,27,11,54,14.20
2018,11,27,11,55,14.20
2018,11,27,11,56,14.20
2018,11,27,11,57,14.20
2018,11,27,11,58,14.30
2018,11,27,11,59,14.30
2018,11,27,12,00,14.30
2018,11,27,12,01,14.30
2018,11,27,12,02,14.30
2018,11,27,12,03,14.20
2018,11,27,12,04,14.20
2018,11,27,12,05,14.20
2018,11,27,12,06,14.20
2018,11,27,12,07,14.20
2018,11,27,12,08,14.20
2018,11,27,12,09,14.20
2018,11,27,12,10,14.20
2018,11,27,12,11,14.20
2018,11,27,12,12,14.20
2018,11,27,12,13,14.30
2018,11,27,12,14,14.30
2018,11,27,12,15,14.30
2018,11,27,12,16,14.30
2018,11,27,12,17,14.30
2018,11,27,12,18,14.20
2018,11,27,12,19,14.20
2018,11,27,12,20,14.20
2018,11,27,12,21,14.20
2018,11,27,12,22,14.20
2018,11,27,12,23,14.20
2018,11,27,12,24,14.20
2018,11,27,12,25,14.20
2018,11,27,12,26,14.20
2018,11,27,12,27,14.20
2018,11,27,12,28,14.20
2018,11,27,12,29,14.20
2018,11,27,12,30,14.20
2018,11,27,12,31,14.20
2018,11,27,12,32,14.20
2018,11,27,12,33,14.20
2018,11,27,12,34,14.20
2018,11,27,12,35,14.20
2018,11,27,12,36,14.20
2018,11,27,12,37,14.20
2018,11,27,12,38,14.20
2018,11,27,12,39,14.20
2018,11,27,12,40,14.20
2018,11,27,12,41,14.20
2018,11,27,12,42,14.20
2018,11,27,12,43,14.10
2018,11,27,12,44,14.10
2018,11,27,12,45,14.00
2018,11,27,12,46,14.00
2018,11,27,12,47,13.90
2018,11,27,12,48,13.90
2018,11,27,12,49,13.80
2018,11,27,12,50,13.80
2018,11,27,12,51,13.80
2018,11,27,12,52,13.80
2018,11,27,12,53,13.80
2018,11,27,12,54,13.70
2018,11,27,12,55,13.70
2018,11,27,12,56,13.70
2018,11,27,12,57,13.70
2018,11,27,12,58,13.60
2018,11,27,12,59,13.60
2018,11,27,13,00,13.60
2018,11,27,13,01,13.60
2018,11,27,13,02,13.60
2018,11,27,13,03,13.60
2018,11,27,13,04,13.50
2018,11,27,13,05,13.50
2018,11,27,13,06,13.50
2018,11,27,13,07,13.50
2018,11,27,13,08,13.60
2018,11,27,13,09,13.60
2018,11,27,13,10,13.60
2018,11,27,13,11,13.70
2018,11,27,13,12,13.70
2018,11,27,13,13,13.80
2018,11,27,13,14,13.80
2018,11,27,13,15,13.80
2018,11,27,13,16,13.80
2018,11,27,13,17,13.90
2018,11,27,13,18,13.90
2018,11,27,13,19,13.90
2018,11,27,13,20,13.90
2018,11,27,13,21,13.90
2018,11,27,13,22,13.90
2018,11,27,13,23,13.90
2018,11,27,13,24,13.90
2018,11,27,13,25,13.90
2018,11,27,13,26,13.90
2018,11,27,13,27,13.90
2018,11,27,13,28,13.90
2018,11,27,13,29,13.90
2018,11,27,13,30,13.90
2018,11,27,13,31,13.90
2018,11,27,13,32,13.90
2018,11,27,13,33,13.90
2018,11,27,13,34,13.80
2018,11,27,13,35,13.80
2018,11,27,13,36,13.80
2018,11,27,13,37,13.80
2018,11,27,13,38,13.80
2018,11,27,13,39,13.70
2018,11,27,13,40,13.70
2018,11,27,13,41,13.70
2018,11,27,13,42,13.70
2018,11,27,13,43,13.60
2018,11,27,13,44,13.60
2018,11,27,13,45,13.50
2018,11,27,13,46,13.40
2018,11,27,13,47,13.20
2018,11,27,13,48,13.10
2018,11,27,13,49,12.90
2018,11,27,13,50,12.70
2018,11,27,13,51,12.60
2018,11,27,13,52,12.40
2018,11,27,13,53,12.30
2018,11,27,13,54,12.20
2018,11,27,13,55,12.10
2018,11,27,13,56,12.00
2018,11,27,13,57,11.90
2018,11,27,13,58,11.80
2018,11,27,13,59,11.80
2018,11,27,14,00,11.80
2018,11,27,14,01,11.70
2018,11,27,14,02,11.70
2018,11,27,14,03,11.70
2018,11,27,14,04,11.60
2018,11,27,14,05,11.60
2018,11,27,14,06,11.60
2018,11,27,14,07,11.50
2018,11,27,14,08,11.50
2018,11,27,14,09,11.40
2018,11,27,14,10,11.40
2018,11,27,14,11,11.40
2018,11,27,14,12,11.40
2018,11,27,14,13,11.40
2018,11,27,14,14,11.30
2018,11,27,14,15,11.30
2018,11,27,14,16,11.30
2018,11,27,14,17,11.30
2018,11,27,14,18,11.30
2018,11,27,14,19,11.30
2018,11,27,14,20,11.30
2018,11,27,14,21,11.30
2018,11,27,14,22,11.30
2018,11,27,14,23,11.20
2018,11,27,14,24,11.20
2018,11,27,14,25,11.20
2018,11,27,14,26,11.20
2018,11,27,14,27,11.20
2018,11,27,14,28,11.20
2018,11,27,14,29,11.20
2018,11,27,14,30,11.20
2018,11,27,14,31,11.10
2018,11,27,14,32,11.10
2018,11,27,14,33,11.10
2018,11,27,14,34,11.10
2018,11,27,14,35,11.10
2018,11,27,14,36,11.10
2018,11,27,14,37,11.10
2018,11,27,14,38,11.00
2018,11,27,14,39,11.00
2018,11,27,14,40,11.00
2018,11,27,14,41,11.00
2018,11,27,14,42,11.00
2018,11,27,14,43,11.00
2018,11,27,14,44,11.00
2018,11,27,14,45,11.00
2018,11,27,14,46,11.00
2018,11,27,14,47,11.00
2018,11,27,14,48,11.00
2018,11,27,14,49,11.00
2018,11,27,14,50,10.90
2018,11,27,14,51,10.90
2018,11,27,14,52,10.90
2018,11,27,14,53,10.90
2018,11,27,14,54,10.90
2018,11,27,14,55,10.90
2018,11,27,14,56,10.90
2018,11,27,14,57,10.90
2018,11,27,14,58,10.90
2018,11,27,14,59,10.90
2018,11,27,15,00,10.90
2018,11,27,15,01,10.90
2018,11,27,15,02,10.90
2018,11,27,15,03,10.90
2018,11,27,15,04,10.90
2018,11,27,15,05,10.90
2018,11,27,15,06,10.90
2018,11,27,15,07,10.90
2018,11,27,15,08,10.90
2018,11,27,15,09,10.90
2018,11,27,15,10,10.90
2018,11,27,15,11,10.80
2018,11,27,15,12,10.80
2018,11,27,15,13,10.80
2018,11,27,15,14,10.80
2018,11,27,15,15,10.80
2018,11,27,15,16,10.80
2018,11,27,15,17,10.80
2018,11,27,15,18,10.80
2018,11,27,15,19,10.80
2018,11,27,15,20,10.80
2018,11,27,15,21,10.80
2018,11,27,15,22,10.80
2018,11,27,15,23,10.70
2018,11,27,15,24,10.70
2018,11,27,15,25,10.70
2018,11,27,15,26,10.70
2018,11,27,15,27,10.70
2018,11,27,15,28,10.70
2018,11,27,15,29,10.70
2018,11,27,15,30,10.70
2018,11,27,15,31,10.70
2018,11,27,15,32,10.70
2018,11,27,15,33,10.70
2018,11,27,15,34,10.70
2018,11,27,15,35,10.70
2018,11,27,15,36,10.70
2018,11,27,15,37,10.70
2018,11,27,15,38,10.70
2018,11,27,15,39,10.70
2018,11,27,15,40,10.70
2018,11,27,15,41,10.70
2018,11,27,15,42,10.70
2018,11,27,15,43,10.60
2018,11,27,15,44,10.60
2018,11,27,15,45,10.60
2018,11,27,15,46,10.60
2018,11,27,15,47,10.60
2018,11,27,15,48,10.60
2018,11,27,15,49,10.60
2018,11,27,15,50,10.60
2018,11,27,15,51,10.60
2018,11,27,15,52,10.60
2018,11,27,15,53,10.60
2018,11,27,15,54,10.60
2018,11,27,15,55,10.60
2018,11,27,15,56,10.60
2018,11,27,15,57,10.60
2018,11,27,15,58,10.50
2018,11,27,15,59,10.50
2018,11,27,16,00,10.50
2018,11,27,16,01,10.40
2018,11,27,16,02,10.40
2018,11,27,16,03,10.40
2018,11,27,16,04,10.30
2018,11,27,16,05,10.30
2018,11,27,16,06,10.30
2018,11,27,16,07,10.20
2018,11,27,16,08,10.20
2018,11,27,16,09,10.20
2018,11,27,16,10,10.10
2018,11,27,16,11,10.10
2018,11,27,16,12,10.10
2018,11,27,16,13,10.10
2018,11,27,16,14,10.10
2018,11,27,16,15,10.00
2018,11,27,16,16,10.00
2018,11,27,16,17,9.90
2018,11,27,16,18,9.90
2018,11,27,16,19,9.80
2018,11,27,16,20,9.80
2018,11,27,16,21,9.80
2018,11,27,16,22,9.70
2018,11,27,16,23,9.70
2018,11,27,16,24,9.70
2018,11,27,16,25,9.70
2018,11,27,16,26,9.60
2018,11,27,16,27,9.60
2018,11,27,16,28,9.60
2018,11,27,16,29,9.60
2018,11,27,16,30,9.60
2018,11,27,16,31,9.60
2018,11,27,16,32,9.60
2018,11,27,16,33,9.50
2018,11,27,16,34,9.50
2018,11,27,16,35,9.50
2018,11,27,16,36,9.50
2018,11,27,16,37,9.50
2018,11,27,16,38,9.40
2018,11,27,16,39,9.40
2018,11,27,16,40,9.40
2018,11,27,16,41,9.40
2018,11,27,16,42,9.40
2018,11,27,16,43,9.40
2018,11,27,16,44,9.40
2018,11,27,16,45,9.40
2018,11,27,16,46,9.40
2018,11,27,16,47,9.40
2018,11,27,16,48,9.40
2018,11,27,16,49,9.40
2018,11,27,16,50,9.40
2018,11,27,16,51,9.40
2018,11,27,16,52,9.40
2018,11,27,16,53,9.40
2018,11,27,16,54,9.40
2018,11,27,16,55,9.30
2018,11,27,16,56,9.30
2018,11,27,16,57,9.30
2018,11,27,16,58,9.30
2018,11,27,16,59,9.30
2018,11,27,17,00,9.30
2018,11,27,17,01,9.30
2018,11,27,17,02,9.30
2018,11,27,17,03,9.30
2018,11,27,17,04,9.20
2018,11,27,17,05,9.20
2018,11,27,17,06,9.20
2018,11,27,17,07,9.20
2018,11,27,17,08,9.20
2018,11,27,17,09,9.20
2018,11,27,17,10,9.20
2018,11,27,17,11,9.20
2018,11,27,17,12,9.20
2018,11,27,17,13,9.20
2018,11,27,17,14,9.20
2018,11,27,17,15,9.20
2018,11,27,17,16,9.20
2018,11,27,17,17,9.20
2018,11,27,17,18,9.20
2018,11,27,17,19,9.20
2018,11,27,17,20,9.20
2018,11,27,17,21,9.20
2018,11,27,17,22,9.20
2018,11,27,17,23,9.20
2018,11,27,17,24,9.10
2018,11,27,17,25,9.10
2018,11,27,17,26,9.10
2018,11,27,17,27,9.10
2018,11,27,17,28,9.10
2018,11,27,17,29,9.10
2018,11,27,17,30,9.10
2018,11,27,17,31,9.10
2018,11,27,17,32,9.10
2018,11,27,17,33,9.10
2018,11,27,17,34,9.10
2018,11,27,17,35,9.10
2018,11,27,17,36,9.10
2018,11,27,17,37,9.00
2018,11,27,17,38,9.00
2018,11,27,17,39,9.00
2018,11,27,17,40,9.00
2018,11,27,17,41,9.00
2018,11,27,17,42,9.00
2018,11,27,17,43,9.00
2018,11,27,17,44,9.00
2018,11,27,17,45,9.00
2018,11,27,17,46,9.00
2018,11,27,17,47,9.00
2018,11,27,17,48,9.00
2018,11,27,17,49,9.00
2018,11,27,17,50,9.00
2018,11,27,17,51,9.00
2018,11,27,17,52,9.00
2018,11,27,17,53,9.00
2018,11,27,17,54,9.00
2018,11,27,17,55,9.00
2018,11,27,17,56,8.90
2018,11,27,17,57,8.90
2018,11,27,17,58,8.90
2018,11,27,17,59,8.90
2018,11,27,18,00,8.90
2018,11,27,18,01,8.90
2018,11,27,18,02,8.90
2018,11,27,18,03,8.90
2018,11,27,18,04,8.90
2018,11,27,18,05,8.90
2018,11,27,18,06,8.90
2018,11,27,18,07,8.90
2018,11,27,18,08,8.90
2018,11,27,18,09,8.80
2018,11,27,18,10,8.80
2018,11,27,18,11,8.80
2018,11,27,18,12,8.80
2018,11,27,18,13,8.80
2018,11,27,18,14,8.80
2018,11,27,18,15,8.80
2018,11,27,18,16,8.70
2018,11,27,18,17,8.70
2018,11,27,18,18,8.70
2018,11,27,18,19,8.70
2018,11,27,18,20,8.70
2018,11,27,18,21,8.70
2018,11,27,18,22,8.60
2018,11,27,18,23,8.60
2018,11,27,18,24,8.60
2018,11,27,18,25,8.60
2018,11,27,18,26,8.60
2018,11,27,18,27,8.60
2018,11,27,18,28,8.60
2018,11,27,18,29,8.60
2018,11,27,18,30,8.50
2018,11,27,18,31,8.50
2018,11,27,18,32,8.50
2018,11,27,18,33,8.50
2018,11,27,18,34,8.50
2018,11,27,18,35,8.50
2018,11,27,18,36,8.50
2018,11,27,18,37,8.40
2018,11,27,18,38,8.40
2018,11,27,18,39,8.40
2018,11,27,18,40,8.40
2018,11,27,18,41,8.50
2018,11,27,18,42,8.50
2018,11,27,18,43,8.50
2018,11,27,18,44,8.60
2018,11,27,18,45,8.70
2018,11,27,18,46,8.80
2018,11,27,18,47,8.80
2018,11,27,18,48,8.90
2018,11,27,18,49,8.90
2018,11,27,18,50,9.00
2018,11,27,18,51,9.00
2018,11,27,18,52,9.10
2018,11,27,18,53,9.20
2018,11,27,18,54,9.20
2018,11,27,18,55,9.20
2018,11,27,18,56,9.30
2018,11,27,18,57,9.30
2018,11,27,18,58,9.30
2018,11,27,18,59,9.30
2018,11,27,19,00,9.40
2018,11,27,19,01,9.40
2018,11,27,19,02,9.50
2018,11,27,19,03,9.60
2018,11,27,19,04,9.60
2018,11,27,19,05,9.60
2018,11,27,19,06,9.70
2018,11,27,19,07,9.70
2018,11,27,19,08,9.70
2018,11,27,19,09,9.70
2018,11,27,19,10,9.80
2018,11,27,19,11,9.80
2018,11,27,19,12,9.80
2018,11,27,19,13,9.80
2018,11,27,19,14,9.80
2018,11,27,19,15,9.80
2018,11,27,19,16,9.80
2018,11,27,19,17,9.90
2018,11,27,19,18,9.90
2018,11,27,19,19,9.90
2018,11,27,19,20,9.90
2018,11,27,19,21,9.90
2018,11,27,19,22,10.00
2018,11,27,19,23,10.00
2018,11,27,19,24,10.00
2018,11,27,19,25,10.00
2018,11,27,19,26,10.00
2018,11,27,19,27,10.00
2018,11,27,19,28,10.00
2018,11,27,19,29,10.00
2018,11,27,19,30,10.00
2018,11,27,19,31,10.00
2018,11,27,19,32,10.10
2018,11,27,19,33,10.10
2018,11,27,19,34,10.10
2018,11,27,19,35,10.00
2018,11,27,19,36,10.00
2018,11,27,19,37,10.00
2018,11,27,19,38,10.00
2018,11,27,19,39,10.00
2018,11,27,19,40,10.00
2018,11,27,19,41,10.00
2018,11,27,19,42,10.00
2018,11,27,19,43,10.00
2018,11,27,19,44,10.00
2018,11,27,19,45,10.00
2018,11,27,19,46,9.90
2018,11,27,19,47,9.90
2018,11,27,19,48,9.90
2018,11,27,19,49,9.90
2018,11,27,19,50,9.80
2018,11,27,19,51,9.80
2018,11,27,19,52,9.80
2018,11,27,19,53,9.80
2018,11,27,19,54,9.80
2018,11,27,19,55,9.80
2018,11,27,19,56,9.80
2018,11,27,19,57,9.80
2018,11,27,19,58,9.80
2018,11,27,19,59,9.80
2018,11,27,20,00,9.70
2018,11,27,20,01,9.70
2018,11,27,20,02,9.70
2018,11,27,20,03,9.70
2018,11,27,20,04,9.70
2018,11,27,20,05,9.70
2018,11,27,20,06,9.70
2018,11,27,20,07,9.70
2018,11,27,20,08,9.70
2018,11,27,20,09,9.70
2018,11,27,20,10,9.70
2018,11,27,20,11,9.70
2018,11,27,20,12,9.70
2018,11,27,20,13,9.70
2018,11,27,20,14,9.70
2018,11,27,20,15,9.70
2018,11,27,20,16,9.70
2018,11,27,20,17,9.70
2018,11,27,20,18,9.70
2018,11,27,20,19,9.70
2018,11,27,20,20,9.70
2018,11,27,20,21,9.60
2018,11,27,20,22,9.60
2018,11,27,20,23,9.60
2018,11,27,20,24,9.60
2018,11,27,20,25,9.60
2018,11,27,20,26,9.70
2018,11,27,20,27,9.70
2018,11,27,20,28,9.70
2018,11,27,20,29,9.70
2018,11,27,20,30,9.70
2018,11,27,20,31,9.70
2018,11,27,20,32,9.70
2018,11,27,20,33,9.70
2018,11,27,20,34,9.70
2018,11,27,20,35,9.70
2018,11,27,20,36,9.70
2018,11,27,20,37,9.70
2018,11,27,20,38,9.70
2018,11,27,20,39,9.70
2018,11,27,20,40,9.70
2018,11,27,20,41,9.70
2018,11,27,20,42,9.70
2018,11,27,20,43,9.70
2018,11,27,20,44,9.70
2018,11,27,20,45,9.60
2018,11,27,20,46,9.60
2018,11,27,20,47,9.60
2018,11,27,20,48,9.60
2018,11,27,20,49,9.50
2018,11,27,20,50,9.50
2018,11,27,20,51,9.50
2018,11,27,20,52,9.40
2018,11,27,20,53,9.40
2018,11,27,20,54,9.40
2018,11,27,20,55,9.40
2018,11,27,20,56,9.40
2018,11,27,20,57,9.40
2018,11,27,20,58,9.40
2018,11,27,20,59,9.40
2018,11,27,21,00,9.40
2018,11,27,21,01,9.40
2018,11,27,21,02,9.30
2018,11,27,21,03,9.30
2018,11,27,21,04,9.30
2018,11,27,21,05,9.30
2018,11,27,21,06,9.20
2018,11,27,21,07,9.20
2018,11,27,21,08,9.20
2018,11,27,21,09,9.20
2018,11,27,21,10,9.10